SCP
0 0 0 0 0 0 0 0 0 0 0 0 0 0 0 0 0 0 0 0 0 0 0 0 0 0 0 0 0 0 0 0 0 0 0 0 0 0
0 0 0 0 0 0 0 0 0 0 0 0 0 0 0 0 0 0 0 0 0 0 0 0 0 0 0 0 0 0 0 0 0 0 0 0 0 0
0 0 0 0 0 0 0 0 0 0 0 0 0 0 0 0 0 0 0 0 0 0 0 0 0 0 0 0 0 0 0 0 0 0 0 0 0 0
0 0 0 0 0 0 0 0 0 0 0 0 0 0 -0 0 0 0 0 0 0 0 0 0 0 0 0 0 0 0 0 0 0 0 0 0 0 0
0 0 0 0 0 0 0 0 0 0 0 0 0 0 0 0 0 0 0 0 0 0 0 0 0 0 0 0 0 0 0 0 0 0 0 0 0 0
0 0 0 0 0 0 0 0 0 0 0 0 0 0 0 0 0 0 0 0 0 0 0 0 0 0 0 0 0 0 0 0 0 0 0 0 0 0
0 0 0 0 0 0 0 0 0 0 0 0 0 0 0 0 0 0 0 0 0 0 0 0 0 0 0 0 0 0 0 0 0 0 0 0 0 0
0 0 0 0 0 0 0 0 0 0 0 0 0 0 0 0 0 0 0 0 0 0 0 0 0 0 0 0 0 0 0 0 0 0 0 0 0 0
0 0 0 0 0 0 0 0 0 0 0 0 0 0 0 0 0 0 0 0 0 0 0 0 0 0 0 0 0 0 0 0 0 0 0 0 0 0
0 0 0 0 0 0 0 0 0 0 0 0 0 0 0 0 0 0 0 0 0 0 0 0 0 0 0 0 0 0 0 0 0 0 0 0 0 0
0 0 0 0 0 0 0 0 0 0 0 0 0 0 0 0 0 0 0 0 0 0 0 0 0 0 0 0 0 0 0 0 0 0 0 0 0 0
0 0 0 0 0 0 0 0 0 0 0 0 0 0 0 0 0 0 0 0 0 0 0 0 0 0 0 0 0 0 0 0 0 0 0 0 0 0
0 0 0 0 0 0 0 0 0 0 0 0 0 0 0 0 0 0 0 0 0 0 0 0 0 0 0 0 0 0 0 0 0 0 0 0 0 0
0 0 0 0 0 0 0 0 0 0 0 0 0 0 0 0 0 0 0 0 0 0 0 0 0 0 0 0 0 0 0 0 0 0 0 0 0 0
0 0 0 0 0 0 0 0 0 0 0 0 0 0 0 0 0 0 0 0 0 0 0 0 0 0 0 0 0 0 0 0 0 0 0 0 0 0
0 0 0 0 0 0 0 0 0 0 0 0 0 0 0 0 0 0 0 0 0 0 0 0 0 0 0 0 0 0 0 0 0 0 0 0 0 0
0 0 0 0 0 0 0 0 0 0 0 0 0 0 0 0 0 0 0 0 0 0 0 0 0 0 0 0 0 0 0 0 0 0 0 0 0 0
0 0 0 0 0 0 0 0 0 0 0 0 0 0 0 0 0 0 0 0 0 0 0 0 0 0 0 0 0 0 0 0 0 0 0 0 0 0
0 0 0 0 0 0 0 0 0 0 0 0 0 0 0 0 0 0 0 0 0 0 0 0 0 0 0 0 0 0 0 0 0 0 0 0 0 0
0 0 0 0 0 0 0 0 0 0 0 0 0 0 0 0 0 0 0 0 0 0 0 0 0 0 0 0 0 0 0 0 0 0 0 0 0 0
0 0 0 0 0 0 0 0 0 0 0 0 0 0 0 0 0 0 0 0 0 0 0 0 0 0 0 0 0 0 0 0 0 0 0 0 0 0
0 0 0 0 0 0 0 0 0 0 0 0 0 0 0 0 0 0 0 0 0 0 0 0 0 0 0 0 0 0 0 0 0 0 0 0 0 0
0 0 0 0 0 0 0 0 0 0 0 0 0 0 0 0 0 0 0 0 0 0 0 0 0 0 0 0 0 0 0 0 0 0 0 0 0 0
Wind_Speed
7 8 7 6 6 6 6 6 7 7 7 6 4 4 4 5 5 6 8 9 10 12 12 12 12 11 11 11 12 12 12 12 12 12 13 12 13 13
6 7 7 6 6 6 6 7 8 8 8 6 5 5 6 6 7 8 8 10 11 12 12 12 12 12 12 12 12 12 12 12 13 13 14 14 13 13
7 8 8 7 7 6 7 7 8 8 10 8 6 7 8 8 7 7 8 8 7 10 12 12 12 12 12 12 12 12 12 13 13 13 14 14 14 14
8 8 8 7 8 7 7 8 8 8 9 10 8 7 9 8 8 8 7 6 7 9 11 12 11 12 12 12 12 11 12 12 13 13 14 14 14 14
7 8 8 8 8 7 8 8 7 7 8 8 9 7 6 6 7 7 8 7 7 7 9 10 11 11 11 12 11 11 12 12 12 13 13 13 14 14
7 8 8 9 8 8 7 8 7 8 8 8 8 7 6 6 6 6 6 6 6 6 7 8 9 10 11 11 11 11 12 12 13 13 13 13 13 13
7 7 7 8 9 8 7 8 8 7 7 7 8 7 7 6 6 5 7 6 7 6 6 6 6 6 7 9 10 10 11 11 12 12 13 13 13 13
7 7 6 7 8 10 12 12 11 9 8 8 8 8 9 8 7 6 6 7 7 4 5 7 6 6 6 6 8 9 10 11 11 11 12 12 12 12
6 6 6 6 8 7 9 11 11 12 13 10 10 11 10 9 9 9 8 8 9 6 5 8 6 7 6 6 8 10 10 10 11 11 11 11 11 12
6 7 7 7 7 8 8 8 9 10 10 10 10 11 10 10 9 10 10 10 9 7 7 8 6 7 6 6 8 9 10 10 10 10 10 10 10 10
6 7 7 8 8 10 9 9 10 9 9 11 12 13 14 14 12 8 8 8 8 7 6 7 6 6 6 6 6 8 9 9 9 10 10 10 10 10
5 6 8 8 9 10 9 9 10 9 8 8 9 11 11 11 13 11 9 9 8 7 5 5 5 4 5 4 4 5 6 8 10 10 10 10 9 7
5 5 5 8 10 11 11 9 10 9 8 8 7 7 7 7 7 8 8 8 8 7 5 4 5 5 5 5 5 5 5 5 5 6 7 8 8 7
6 5 6 8 10 11 9 9 11 10 6 6 6 6 6 6 6 7 8 8 8 9 8 7 6 6 6 6 5 4 4 4 4 5 4 6 8 9
5 8 9 10 10 8 8 10 9 6 5 6 6 6 6 6 6 5 7 7 8 8 8 8 7 6 6 7 6 5 5 4 4 4 4 4 5 5
5 7 9 9 8 8 7 6 5 5 5 6 6 6 5 5 5 5 5 5 6 5 6 6 7 7 6 6 6 6 5 4 4 4 5 4 4 4
5 4 4 4 4 4 4 4 4 4 5 5 6 5 5 6 5 5 5 5 6 6 5 3 3 3 5 5 6 6 5 5 5 4 4 5 5 5
6 4 4 4 4 4 4 4 4 5 5 5 5 5 6 6 5 5 5 5 6 5 5 4 3 3 3 4 5 6 5 5 4 4 4 5 5 4
4 4 4 4 5 5 4 5 5 5 5 5 5 5 5 5 5 5 5 5 5 5 5 4 4 4 6 6 4 5 5 4 4 4 4 5 5 5
4 4 5 5 5 5 5 5 5 5 5 5 5 5 5 5 5 6 5 6 6 5 5 4 4 5 6 5 4 4 5 5 5 5 4 4 4 5
4 4 5 5 5 5 5 5 5 5 5 5 5 5 5 5 6 6 6 7 6 6 6 5 4 4 3 3 4 4 3 4 5 5 4 4 4 4
5 5 5 5 5 5 5 5 5 5 6 5 5 5 5 5 6 7 6 5 5 5 5 3 3 3 3 5 5 4 4 3 3 4 6 6 4 4
5 5 5 5 5 5 5 6 6 6 5 5 5 5 5 6 5 5 6 5 5 4 4 3 3 3 3 4 4 4 4 3 2 2 2 3 4 6
Wind_Direction
242 240 238 240 240 242 239 237 248 260 260 254 250 240 250 257 270 266 268 268 271 266 266 268 267 266 266 267 269 269 269 271 268 267 260 259 260 262
242 242 242 242 240 240 239 241 243 252 261 258 264 266 267 268 270 269 271 275 266 267 263 264 263 260 260 263 266 266 265 266 267 266 264 258 260 261
243 242 244 244 242 241 243 243 241 244 255 264 265 269 269 267 270 269 269 270 266 265 267 262 260 258 258 260 262 262 262 263 265 265 267 261 259 260
246 246 247 245 244 246 246 246 244 243 248 260 264 265 268 269 271 272 273 273 271 268 268 266 259 258 258 257 257 260 261 262 264 265 264 262 258 259
248 247 248 245 247 246 247 250 252 251 247 254 263 267 270 268 273 273 273 271 274 272 270 264 255 255 257 257 257 259 261 261 262 265 263 262 260 258
252 251 250 247 248 248 249 250 252 255 252 252 258 264 266 268 267 269 273 271 274 278 274 267 257 255 256 258 257 258 258 260 262 261 259 258 260 258
258 255 254 255 258 257 254 253 250 250 253 252 256 262 262 262 260 266 269 277 275 268 271 267 258 253 252 253 253 253 256 258 259 258 258 258 260 258
261 262 261 258 256 257 259 262 260 256 256 255 256 257 260 263 264 263 268 272 273 267 275 275 265 256 253 251 251 252 253 255 257 259 260 259 259 257
265 264 262 261 261 259 262 262 262 261 259 259 260 259 262 262 262 261 261 264 267 275 274 272 268 261 256 256 256 252 253 255 258 259 259 260 260 258
266 265 265 265 263 264 265 263 262 260 259 256 258 261 262 263 260 260 265 268 271 267 259 269 270 268 269 260 255 252 254 256 259 260 261 264 267 266
270 268 267 265 269 268 265 265 265 265 265 259 261 266 267 263 261 260 257 258 265 265 256 260 270 275 274 266 254 248 251 256 262 264 263 263 265 267
277 273 269 269 273 273 265 264 264 267 268 269 265 264 263 261 256 249 250 252 261 265 250 248 263 276 278 264 259 259 255 256 258 260 262 263 262 261
277 276 275 276 274 274 272 267 267 273 273 271 269 265 262 258 255 251 250 249 253 257 257 254 260 262 261 273 272 263 260 259 259 259 260 263 261 256
277 278 280 284 283 280 275 273 274 275 271 269 266 263 261 259 256 255 252 250 251 256 259 255 256 254 260 266 272 271 259 258 260 261 260 263 264 258
280 284 288 290 289 282 279 279 276 267 263 263 264 266 266 266 264 259 254 250 251 254 250 248 248 249 247 255 263 267 274 266 255 256 260 258 260 258
286 285 286 284 282 282 283 276 268 265 262 261 265 268 270 267 262 261 259 254 252 258 253 245 246 248 251 254 257 260 263 262 256 257 262 265 266 260
293 285 283 284 282 279 280 281 276 268 262 260 263 265 264 262 261 260 258 259 255 259 263 258 252 249 261 263 258 255 257 261 262 258 256 260 260 257
293 285 287 286 284 284 284 284 280 274 268 265 262 260 261 260 262 261 258 253 254 256 258 254 246 251 254 260 254 254 256 257 260 262 253 253 262 262
285 282 282 285 285 284 283 281 278 277 275 269 267 265 263 262 262 258 252 252 254 255 255 249 243 243 251 259 254 232 248 256 259 261 256 256 261 266
282 279 280 283 284 283 281 279 278 278 274 269 267 265 263 261 258 256 251 251 254 256 255 249 243 244 248 256 269 274 252 248 250 256 261 265 269 264
283 281 280 281 282 281 280 277 275 274 273 269 266 265 263 261 257 256 254 252 253 253 252 251 250 254 264 254 254 260 267 260 259 257 254 255 260 255
283 281 279 277 277 277 277 276 274 271 269 265 265 266 263 262 260 257 255 252 249 252 259 260 247 236 241 239 244 257 272 276 268 263 261 254 244 236
282 281 280 277 272 271 270 270 269 269 267 266 265 264 265 264 263 259 254 250 250 248 250 252 252 245 242 236 240 247 250 264 272 291 292 293 269 256